Location: Killam
(52.7910°N, 111.8608°W)
Time: 13:52:23
(UTC+00:00)

Oscar 11 - Pass Details

Date: 18 March 2026
Orbit: 590 x 602 km, 97.8° (Epoch: 18 April)

Event Time Altitude Azimuth Distance (km) Brightness Sun altitude
Rises 11:41:42 0° 10° (N) 2,842 10.9 -17.4°
Reaches altitude 10° 11:43:55 10° 6° (N) 1,935 10.0 -17.1°
Maximum altitude 11:47:59 51° 291° (WNW) 753 7.2 -16.6°
Enters shadow 11:49:43 30° 232° (SW) 1,072 7.7 -16.3°
